When you browse on this site, cookies collect data to enhance your experience and personalize the content and advertising you see.
Visit our Privacy Policy to learn more. By continuing to use the site, you agree to this use of cookies and data.
  • In Portugal
  • List of Countries
  • For 7 days
  • Water Temperature
  • Satellite Maps
  • Weather Map
  • Weather Widgets
  • user-avatar
    Login

    Hourly Weather Tyrgowishte

    Today, 19 April, Friday

    Time Temperature Precipitation Wind Pressure Humidity
    00:00 +5°C° 0.1 mm 2 mps 751 mmHg 95%
    01:00 +5°C° 0.1 mm 2 mps 751 mmHg 96%
    02:00 +5°C° 0 mm 3 mps 751 mmHg 97%
    03:00 +4°C° 0.1 mm 3 mps 750 mmHg 97%
    04:00 +4°C° 0.1 mm 3 mps 750 mmHg 97%
    05:00 +4°C° 0.1 mm 3 mps 750 mmHg 97%
    06:00 +5°C° 0 mm 3 mps 750 mmHg 94%
    07:00 +6°C° 0 mm 4 mps 750 mmHg 92%
    08:00 +7°C° 0 mm 5 mps 749 mmHg 92%
    09:00 +8°C° 0.2 mm 5 mps 749 mmHg 85%
    10:00 +9°C° 0.2 mm 6 mps 749 mmHg 79%
    11:00 +11°C° 0.2 mm 6 mps 749 mmHg 73%
    12:00 +11°C° 1 mm 6 mps 749 mmHg 71%
    13:00 +13°C° 1 mm 6 mps 748 mmHg 68%
    14:00 +13°C° 1 mm 6 mps 748 mmHg 66%
    15:00 +13°C° 0.9 mm 5 mps 748 mmHg 69%
    16:00 +12°C° 0.9 mm 4 mps 748 mmHg 72%
    17:00 +11°C° 0.9 mm 4 mps 748 mmHg 76%
    18:00 +10°C° 0.4 mm 3 mps 748 mmHg 81%
    19:00 +9°C° 0.4 mm 2 mps 749 mmHg 86%
    20:00 +9°C° 0.4 mm 1 mps 749 mmHg 92%
    21:00 +8°C° 0 mm 1 mps 749 mmHg 92%
    22:00 +8°C° 0 mm 1 mps 750 mmHg 93%
    23:00 +7°C° 0 mm 1 mps 750 mmHg 93%

    Tomorrow, 20 April, Saturday

    Time Temperature Precipitation Wind Pressure Humidity
    00:00 +7°C° 0 mm 1 mps 750 mmHg 91%
    01:00 +6°C° 0 mm 0 mps 750 mmHg 89%
    02:00 +6°C° 0 mm 0 mps 750 mmHg 87%
    03:00 +5°C° 0 mm 0 mps 750 mmHg 86%
    04:00 +6°C° 0 mm 1 mps 750 mmHg 85%
    05:00 +6°C° 0 mm 1 mps 750 mmHg 84%
    06:00 +6°C° 0 mm 2 mps 750 mmHg 80%
    07:00 +7°C° 0 mm 2 mps 751 mmHg 77%
    08:00 +8°C° 0 mm 3 mps 751 mmHg 73%
    09:00 +8°C° 0.2 mm 4 mps 751 mmHg 67%
    10:00 +9°C° 0.2 mm 5 mps 751 mmHg 62%
    11:00 +10°C° 0.2 mm 6 mps 751 mmHg 56%
    12:00 +10°C° 0.1 mm 6 mps 751 mmHg 54%
    13:00 +11°C° 0.1 mm 6 mps 751 mmHg 52%
    14:00 +11°C° 0.1 mm 6 mps 751 mmHg 49%
    15:00 +12°C° 0.1 mm 5 mps 751 mmHg 50%
    16:00 +12°C° 0.1 mm 5 mps 751 mmHg 51%
    17:00 +10°C° 0.1 mm 5 mps 751 mmHg 52%
    18:00 +10°C° 0 mm 4 mps 751 mmHg 57%
    19:00 +8°C° 0 mm 3 mps 751 mmHg 62%
    20:00 +7°C° 0 mm 2 mps 751 mmHg 67%
    21:00 +6°C° 0 mm 2 mps 751 mmHg 68%
    22:00 +6°C° 0 mm 2 mps 751 mmHg 69%
    23:00 +6°C° 0 mm 2 mps 751 mmHg 70%

    Day after tomorrow, 21 April, Sunday

    Time Temperature Precipitation Wind Pressure Humidity
    00:00 +5°C° 0 mm 2 mps 751 mmHg 72%
    01:00 +5°C° 0 mm 2 mps 751 mmHg 73%
    02:00 +4°C° 0 mm 2 mps 751 mmHg 75%
    03:00 +4°C° 0 mm 2 mps 751 mmHg 75%
    04:00 +4°C° 0 mm 2 mps 750 mmHg 76%
    05:00 +4°C° 0 mm 2 mps 750 mmHg 77%
    06:00 +5°C° 0 mm 2 mps 750 mmHg 72%
    07:00 +7°C° 0 mm 2 mps 750 mmHg 67%
    08:00 +10°C° 0 mm 1 mps 751 mmHg 61%
    09:00 +11°C° 0 mm 1 mps 750 mmHg 57%
    10:00 +12°C° 0 mm 2 mps 750 mmHg 53%
    11:00 +14°C° 0 mm 2 mps 750 mmHg 49%
    12:00 +14°C° 0 mm 2 mps 750 mmHg 49%
    13:00 +14°C° 0 mm 2 mps 749 mmHg 50%
    14:00 +14°C° 0 mm 2 mps 749 mmHg 50%
    15:00 +14°C° 0.1 mm 2 mps 749 mmHg 52%
    16:00 +14°C° 0.1 mm 2 mps 749 mmHg 54%
    17:00 +14°C° 0.1 mm 2 mps 748 mmHg 56%
    18:00 +12°C° 0 mm 2 mps 749 mmHg 63%
    19:00 +9°C° 0 mm 2 mps 749 mmHg 70%
    20:00 +8°C° 0 mm 2 mps 749 mmHg 77%
    21:00 +7°C° 0 mm 2 mps 749 mmHg 78%
    22:00 +6°C° 0 mm 2 mps 749 mmHg 79%
    23:00 +6°C° 0 mm 2 mps 750 mmHg 80%

    22 April, Monday

    Time Temperature Precipitation Wind Pressure Humidity
    00:00 +5°C° 0 mm 2 mps 749 mmHg 79%
    01:00 +5°C° 0 mm 2 mps 749 mmHg 78%
    02:00 +5°C° 0 mm 2 mps 749 mmHg 77%
    03:00 +4°C° 0 mm 2 mps 749 mmHg 76%
    04:00 +4°C° 0 mm 2 mps 749 mmHg 76%
    05:00 +4°C° 0 mm 2 mps 749 mmHg 75%
    06:00 +6°C° 0 mm 2 mps 750 mmHg 71%
    07:00 +7°C° 0 mm 2 mps 750 mmHg 66%
    08:00 +9°C° 0 mm 2 mps 750 mmHg 62%
    09:00 +10°C° 0 mm 3 mps 750 mmHg 57%
    10:00 +12°C° 0 mm 3 mps 750 mmHg 53%
    11:00 +13°C° 0 mm 4 mps 751 mmHg 49%
    12:00 +14°C° 0 mm 4 mps 750 mmHg 48%
    13:00 +14°C° 0 mm 4 mps 750 mmHg 47%
    14:00 +15°C° 0 mm 4 mps 750 mmHg 46%
    15:00 +14°C° 0 mm 5 mps 749 mmHg 49%
    16:00 +14°C° 0 mm 5 mps 749 mmHg 51%
    17:00 +13°C° 0 mm 5 mps 749 mmHg 54%
    18:00 +10°C° 0 mm 5 mps 750 mmHg 59%
    19:00 +8°C° 0 mm 4 mps 750 mmHg 64%
    20:00 +6°C° 0 mm 4 mps 750 mmHg 69%
    21:00 +7°C° 0 mm 3 mps 750 mmHg 72%
    22:00 +5°C° 0 mm 3 mps 750 mmHg 76%
    23:00 +4°C° 0 mm 3 mps 751 mmHg 80%

    23 April, Tuesday

    Time Temperature Precipitation Wind Pressure Humidity
    00:00 +4°C° 0 mm 3 mps 751 mmHg 83%
    01:00 +4°C° 0 mm 2 mps 751 mmHg 87%
    02:00 +4°C° 0 mm 2 mps 751 mmHg 90%
    03:00 +4°C° 0 mm 2 mps 751 mmHg 91%
    04:00 +4°C° 0 mm 2 mps 751 mmHg 91%
    05:00 +3°C° 0 mm 3 mps 751 mmHg 92%
    06:00 +5°C° 0 mm 3 mps 751 mmHg 86%
    07:00 +6°C° 0 mm 4 mps 751 mmHg 81%
    08:00 +7°C° 0 mm 4 mps 751 mmHg 75%
    09:00 +8°C° 0 mm 5 mps 751 mmHg 71%
    10:00 +10°C° 0 mm 5 mps 751 mmHg 66%
    11:00 +11°C° 0 mm 6 mps 752 mmHg 62%
    12:00 +11°C° 0.1 mm 6 mps 751 mmHg 63%
    13:00 +11°C° 0.1 mm 6 mps 751 mmHg 64%
    14:00 +11°C° 0.1 mm 6 mps 751 mmHg 66%
    15:00 +10°C° 0.3 mm 6 mps 750 mmHg 70%
    16:00 +10°C° 0.3 mm 6 mps 750 mmHg 73%
    17:00 +9°C° 0.3 mm 5 mps 750 mmHg 77%
    18:00 +8°C° 0.2 mm 5 mps 750 mmHg 81%
    19:00 +7°C° 0.2 mm 5 mps 750 mmHg 84%
    20:00 +7°C° 0.2 mm 5 mps 750 mmHg 88%
    21:00 +6°C° 0 mm 5 mps 750 mmHg 87%
    22:00 +6°C° 0 mm 5 mps 750 mmHg 87%
    23:00 +6°C° 0 mm 4 mps 750 mmHg 87%

    24 April, Wednesday

    Time Temperature Precipitation Wind Pressure Humidity
    00:00 +6°C° 0 mm 4 mps 750 mmHg 88%
    01:00 +6°C° 0 mm 4 mps 750 mmHg 89%
    02:00 +7°C° 0 mm 4 mps 750 mmHg 90%
    03:00 +7°C° 0.3 mm 3 mps 750 mmHg 92%
    04:00 +7°C° 0.3 mm 3 mps 750 mmHg 94%
    05:00 +7°C° 0.3 mm 3 mps 750 mmHg 96%
    06:00 +8°C° 0.1 mm 3 mps 750 mmHg 93%
    07:00 +9°C° 0.1 mm 3 mps 751 mmHg 90%
    08:00 +10°C° 0.1 mm 3 mps 751 mmHg 87%
    09:00 +11°C° 0 mm 3 mps 751 mmHg 83%
    10:00 +12°C° 0 mm 3 mps 751 mmHg 80%
    11:00 +13°C° 0 mm 3 mps 751 mmHg 76%
    12:00 +14°C° 0 mm 3 mps 751 mmHg 75%
    13:00 +14°C° 0 mm 3 mps 751 mmHg 74%
    14:00 +14°C° 0 mm 3 mps 750 mmHg 73%
    15:00 +14°C° 0 mm 4 mps 750 mmHg 73%
    16:00 +14°C° 0 mm 4 mps 750 mmHg 72%
    17:00 +14°C° 0 mm 4 mps 750 mmHg 72%
    18:00 +13°C° 0 mm 4 mps 751 mmHg 77%
    19:00 +11°C° 0 mm 3 mps 751 mmHg 82%
    20:00 +9°C° 0 mm 3 mps 751 mmHg 87%
    21:00 +9°C° 0 mm 2 mps 751 mmHg 89%
    22:00 +8°C° 0 mm 2 mps 751 mmHg 90%
    23:00 +7°C° 0 mm 2 mps 751 mmHg 91%
    Show more